Погода в Калининграде

Погода в Калининграде : погода сейчас, прогноз погоды и архив. Всё, что Вы хотите узнать о погоде в Калининграде!

Хотите узнать прогноз погоды в Калининграде? Тогда Вам сюда: Погода в Калининграде

Поиск расширенной информации на нашем сайте:

Другие новости

Новости СМИ2

Главная страница сайта

Новости сайта

02.10.2013

Напоминаем, что на нашем новом сайте вы можете получить высокодетализированные прогнозы погоды по пунктам России, СНГ и мира (включающие важные для авиации метеовеличины, такие как направление и скорость ветра, видимость, явления погоды, количество и форма облачности, нижняя и верхняя граница облачности), а также ознакомиться с разнообразными материалами по авиационной метеорологии и подборкой полезных ссылок на эту тему.

Сайт Метеоцентр.Азия посвящён разработке технологий оптимизации авиаметеорологического обслуживания, включая проектирование и перспективное создание нескольких автоматизированных авиаметеорологических систем:
- система выпуска высокодетальных прогностических карт явлений погоды для нижнего воздушного пространства по России и ближнему зарубежью;
- система верификации прогнозов TAF (выпускаемых синоптиками официальных АМСГ РФ и ближнего зарубежья) и AUTOTAF (выпускаемых сайтом Метеоцентр.Азия) - выявление ошибок, онлайн-сопоставление с фактической погодой METAR, автоматическое внесение коррективов в прогнозы при резком отклонении фактической погоды от прогноза, подсчёт оправдываемости прогнозов по элементам и в целом;
- система обработки, анализа и отображения авиаметеорологической информации для применения провайдерами метеорологической информации.

Рекомендуем: Стоимость услуги по Выравниванию земельного участка.

Погода в Калининграде - сегодня

Время (UTC), дата Ветер
(°,м/с) 
Видим.   Явления Облачность Т
(°С)
Тd
(°С)
f(%) Тe
(°С)
Pmin
(гПа)
dP
(гПа)
Po
(мм)
O2
(г/м3)
Тmin Tmax R s Состояние
почвы
03 18.02.17 260 (З) 2-3{04}  4000 м  в посл. час морось{дождь}  10/10 300 м 
[Sc]
+2.9 +2.9 100 +2  1018.2  762  303  +2.6    0.8     
06 18.02.17 300 (СЗ) 2-4{04}  4000 м  дымка{дождь, морось}  10/10 300 м 
[Sc]
+3.1 +3.1 100 +3  1019.5  1.2  763  303  +2.6    0.8     
09 18.02.17 290 (З) 1-3{05}  4000 м  дымка  10/10 300 м 
[Sc]
+2.8 +2.6 99 +4  1020.8  1.4  764  304           
12 18.02.17 270 (З) 2-4{06}  4000 м  дымка  10/10 300 м 
[Sc]
+2.9 +2.1 94 +2  1021.1  0.3  764  304           
15 18.02.17 280 (З) 1-3{06}  4000 м  дымка  10/10 300 м 
[Sc]
+3 +1.7 91 +4  1021.1  764  304           
18 18.02.17 240 (ЮЗ) 1-3{05}  4000 м  дымка  10/10 600 м 
[Sc]
+2.6 +1.5 92 +3  1021.8  0.7  764  305    +3.3       
21 18.02.17 250 (З) 2-4{04}  4000 м  дымка  10/10 600 м 
[Sc]
+3.2 +1.3 87 +3  1021.1  -0.7  764  304           
00 19.02.17 250 (З) 3-6{07}  4000 м  дымка  10/10 600 м 
[Sc]
+2.3 +1 91 +1  1020.5  -0.6  763  305           
03 19.02.17 240 (ЮЗ) 3-6{08}  4000 м  дымка{дождь}  10/10 600 м 
[Sc]
+2 +0.8 92 +1  1019.2  -1.4  762  305  +1.9    0.0     
06 19.02.17 220 (ЮЗ) 2-5{08}  4000 м  дымка{дождь}  10/10 600 м 
[Sc]
+1.9 +0.2 88 +1  1017.8  -1.3  761  305  +1.9    0.0     
09 19.02.17 230 (ЮЗ) 3-8{08}  4000 м  дымка  10/10 600 м 
[Sc]
+2.7 +0.7 87 +1  1016.7  -1.1  761  303           
12 19.02.17 230 (ЮЗ) 3-8{08}  10 км  слаб. дождь  10/10 600 м 
[Ns]
+4 +2.1 87 +3  1015.1  -1.6  759  301           
15 19.02.17 230 (ЮЗ) 3-8{10}  4000 м  слаб. дождь  10/10 600 м 
[Ns]
+3.8 +2.4 91 +3  1013.6  -1.5  758  301      0.3     
18 19.02.17 240 (ЮЗ) 3-6{08}  4000 м  в посл. час дождь  10/10 600 м 
[Sc]
+4.2 +2.4 88 +3  1013.1  -0.5  758  300    +4.5  0.4     
21 19.02.17 240 (ЮЗ) 2-5{09}  4000 м  дымка{дождь}  10/10 600 м 
[Sc]
+4.1 +1.9 86 +4  1012.8  -0.3  758  300           
00 20.02.17 230 (ЮЗ) 2-5{08}  4000 м  дымка{дождь}  10/10 600 м 
[Sc]
+4.2 +2.3 87 +4  1011.6  -1.2  757  300           
03 20.02.17 230 (ЮЗ) 2-6{07}  4000 м  слаб. морось  10/10 300 м 
[St]
+4 +2.9 93 +4  1010.3  -1.3  756  300  +3.8    0.1     
06 20.02.17 230 (ЮЗ) 3-8{09}  4000 м  в посл. час дождь{морось}  10/10 300 м 
[Sc]
+4.3 +2.8 90 +3  1008.5  -1.7  754  299  +3.9    0.0     
09 20.02.17 240 (ЮЗ) 4-11{11}  10 км    10/10 300 м 
[Sc]
+5.3 +2.7 83 +4  1006.7  -1.8  753  297           
12 20.02.17 240 (ЮЗ) 4-8{13}  4000 м  слаб. дождь  10/10 300 м 
[Frnb|Ns]
+5.1 +3.5 89 +3  1005.1  -2.8  751  296           
15 20.02.17 230 (ЮЗ) 4-11{13}  4000 м  слаб. дождь  10/10 300 м 
[Frnb|Ns]
+5.1 +4.1 93 +3  999.6  -4.3  748  295         
18 20.02.17 250 (З) 3-8{15}  4000 м  слаб. ливневой дождь  10/10 300 м кучево-дожд. 
[Cb cap]
+5.3 +4.6 95 +4  997.2  -2.5  746  294    +5.9     
21 20.02.17 240 (ЮЗ) 4-10{12}  4000 м  слаб. ливневой дождь  10/10 300 м кучево-дожд. 
[Cb cap]
+6.3 +5.4 94 +5  993.5  -3.5  743  292           
00 21.02.17 250 (З) 3-10{13}  4000 м  слаб. ливневой дождь  10/10 300 м кучево-дожд. 
[Cb cap]
+5.5 +5.2 98 +4  991.6  -2  742  292           
03 21.02.17 270 (З) 3-10{14}  4000 м  слаб. ливневой дождь  10/10 300 м кучево-дожд. 
[Cb cap]
+5.6 +5 96 +5  991.5  -0.2  742  292  +5    14     
Время (UTC), дата Ветер
(°,м/с) 
Видим.   Явления Облачность Т
(°С)
Тd
(°С)
f(%) Тe
(°С)
Pmin
(гПа)
dP
(гПа)
Po
(мм)
O2
(г/м3)
Тmin Tmax R s Состояние
почвы

Для получения пояснительной информации подведите курсор к названию столбца.

ПОГОДА в Калининграде - архив

Всё, что Вы хотите узнать о погоде в Калининграде - удобно и подробно!

Выберите нужную дату (начиная с 1 января 2015* года) и нажмите кнопку "Найти".
Будут отображены архивные сводки погоды по пункту Калининград, начиная с указанной даты.


Отображать данные в формате CSV (для использования в таблицах Excel)


Внимание! Наш архив погоды предназначен исключительно для личного некоммерческого использования в познавательных целях. Если Вам необходимы официальные справки о состоянии погоды (для производственных, юридических, коммерческих и т.п. целей), обращайтесь в органы Росгидромета.

*Примечание: данная дата относится к архиву по метеостанциям СССР (Россия, СНГ, Балтия).
Архив по метеостанциям Зарубежной Европы и Азии (кроме Китая) хранится 10 дней, по другим регионам земного шара (Китай, Африка, Америка, Австралия, Океания) - 1 день.

Калининград - район местоположения метеостанции


Название, широта, долгота, высота метеостанции:
Калининград (город) 54.7°ш. 20.6°д. 21 м над ур. моря [Российская Федерация]

Дополнительная информация

В oтличие oт бoльшинства пoгoдных сайтoв мы публикуем пoдрoбную метеoинфoрмацию в детальнoм прoфессиoнальнoм фoрмате.

Характеристики температуры и влажнoсти вoздуха измеряются на высoте 2 м в тени вдали oт зданий и деревьев.
Скoрoсть ветра измеряется на высoте 10 м (на урoвне рoста челoвека скoрoсть ветра ниже в 1.5-2 раза). Если метеoстанция нахoдится в гoрoде или в лесу, тo скoрoсть ветра занижена на 2-4 м/с пo сравнению с oткрытым местoм. Скoрoсть ветра над акватoриями крупных рек и oзёр, а также на вершинах хoлмoв на 2-5 м/с выше, чем в oбычных услoвиях.
Атмoсфернoе давление в разных тoчках местнoсти мoжет значительнo oтличаться oт давления на метеoстанции, в зависимoсти oт услoвий рельефа (при пoдъёме на 10 м давление пoнижается примернo на 1 мм рт.ст.).